Regional Weather Roundup
Issued by NWS

Home | Current Version | Previous Version | Graphics & Text | Print | Product List | Glossary On
Versions: 1 2 3 4 5 6 7 8 9 10 11 12 13 14 15 16 17 18 19 20 21 22 23 24 25 26 27 28 29 30 31 32 33 34 35 36 37 38 39 40 41 42 43 44 45 46 47 48 49 50
000
ASUS45 KABQ 050510
RWRNM
NEW MEXICO REGIONAL WEATHER ROUNDUP
NATIONAL WEATHER SERVICE ALBUQUERQUE NM
1000 PM MST SUN DEC 04 2016

NOTE: "FAIR" MEANS FEW OR NO CLOUDS BELOW 12,000 FEET AGL WITH NO
       SIGNIFICANT WEATHER OR OBSTRUCTIONS TO VISION.

      THIS PRODUCT IS RELEASED AS TWO VERSIONS.  ONE VERSION NEAR
      THE TOP OF THE HOUR CONTAINING PRELIMINARY DATA FROM ALBUQUERQUE
      AND OTHER STATIONS.  A FINAL VERSION WITH ADDITIONAL DATA IS
      ISSUED ABOUT 10 MINUTES AFTER THE HOUR.

NMZ501-503-504-510>518-050600-
NORTHWEST PLATEAU/NORTHCENTRAL MOUNTAINS

CITY           SKY/WX    TMP DP  RH WIND       PRES   REMARKS
FARMINGTON     FAIR      25  19  78 NE3       30.06F
LOS ALAMOS     FAIR      35  16  44 CALM      30.05F
SANTA FE       FAIR      23  15  71 N7        30.02F WCI  15
TAOS           FAIR      23   7  50 CALM      30.04F
ANGEL FIRE     FAIR      18   9  68 S7        30.03F WCI   9

$$
NMZ402-403-502-505>509-050600-
WESTCENTRAL MOUNTAINS/SOUTHWEST MOUNTAINS

CITY           SKY/WX    TMP DP  RH WIND       PRES   REMARKS
GALLUP         FAIR      22  17  81 E5        30.09F WCI  16
GRANTS         FAIR      24  16  73 NW9       30.10F WCI  14
SILVER CITY    FAIR      31  27  85 N7        30.08S WCI  24

$$
NMZ407-409-411-412-050600-
SOUTHERN DESERTS

CITY           SKY/WX    TMP DP  RH WIND       PRES   REMARKS
DEMING         FAIR      34  28  79 SW3       30.07S
LAS CRUCES     FAIR      36  23  58 NW7       30.07F WCI  31
HOLLOMAN AFB   FAIR      35  26  69 SE6       30.08F WCI  30
T OR C         FAIR      36  18  48 NW8       30.05S WCI  30

$$
NMZ519>523-050600-
CENTRAL VALLEYS/CENTRAL HIGHLANDS

CITY           SKY/WX    TMP DP  RH WIND       PRES   REMARKS
ALBUQUERQUE    FAIR      37  13  37 N9        30.06S WCI  30
DOUBLE EAGLE   CLEAR     23  12  63 CALM      30.06F
MORIARTY ARPT  FAIR      19  10  68 CALM      30.04S
CLINES CORNERS FAIR      28   9  44 W13       30.03S WCI  17
BELEN          FAIR      31  18  57 NW6       30.06S WCI  26
SOCORRO        FAIR      32  17  55 SW8       30.06F WCI  25

$$
NMZ524>526-539-540-050600-
SOUTHCENTRAL MOUNTAINS

CITY           SKY/WX    TMP DP  RH WIND       PRES   REMARKS
RUIDOSO        FAIR      28  18  64 SW10      30.06F WCI  19

$$
NMZ527>531-050600-
NORTHEAST HIGHLANDS/NORTHEAST PLAINS

CITY           SKY/WX    TMP DP  RH WIND       PRES   REMARKS
LAS VEGAS      FAIR      30  13  49 W3        29.94F
RATON          FAIR      23  15  71 N8        29.91F WCI  14
CLAYTON        FAIR      33  25  72 SW15      29.89F WCI  23

$$
NMZ532>537-050600-
EASTCENTRAL PLAINS

CITY           SKY/WX    TMP DP  RH WIND       PRES   REMARKS
TUCUMCARI      FAIR      36  26  67 W9        29.95F WCI  29
CANNON AFB     FAIR      28  28 100 SW7       30.01S WCI  21
CLOVIS AIRPORT FAIR      30  23  74 SW9       30.00F WCI  22

$$
NMZ028-029-538-050600-
SOUTHEAST PLAINS

CITY           SKY/WX    TMP DP  RH WIND       PRES   REMARKS
ROSWELL        FAIR      34  30  85 W7        30.03F WCI  28
ARTESIA        FAIR      34  34 100 W13       30.05F WCI  25
CARLSBAD       FAIR      36  35  96 NW3       30.04F
HOBBS          FAIR      32  32 100 NW6       30.05F WCI  26


$$



USA.gov is the U.S. government's official web portal to all federal, state and local government web resources and services.